This is the latest recevied weather packets stored in our database for station/object WZ9ZZZ-1. If no packets are shown the sender has not sent any weather packets the latest 10 day(s).
| Time | Temp. | Humidity | Pressure | Rain* | Wind** | Luminosity | Snow |
|---|---|---|---|---|---|---|---|
| 1777993712 | 25° C | 90% | 1013.1 hPa | 0 mm | - | 606 W/m² | - |
| 1777993409 | 24.44° C | 90% | 1013.2 hPa | 0 mm | - | 476 W/m² | - |
| 1777993103 | 24.44° C | 91% | 1013 hPa | 0 mm | - | 262 W/m² | - |
| 1777992802 | 23.89° C | 91% | 1013.3 hPa | 0 mm | - | 131 W/m² | - |
| 1777992499 | 24.44° C | 90% | 1013.4 hPa | 0 mm | - | 52 W/m² | - |
| 1777992198 | 24.44° C | 90% | 1013.4 hPa | 0 mm | - | 28 W/m² | - |
| 1777991894 | 24.44° C | 89% | 1013.5 hPa | 0 mm | - | 35 W/m² | - |
| 1777991592 | 24.44° C | 88% | 1013.5 hPa | 0 mm | - | 24 W/m² | - |
| 1777991289 | 24.44° C | 87% | 1013.4 hPa | 0 mm | - | 21 W/m² | - |
| 1777990986 | 24.44° C | 87% | 1013.3 hPa | 0 mm | - | 24 W/m² | - |
| 1777990683 | 24.44° C | 87% | 1013.3 hPa | 0 mm | - | 41 W/m² | - |
| 1777990381 | 24.44° C | 87% | 1013.3 hPa | 0 mm | - | 41 W/m² | - |
| 1777990076 | 24.44° C | 87% | 1013.3 hPa | 0 mm | - | 45 W/m² | - |
| 1777989773 | 24.44° C | 87% | 1013.5 hPa | 0 mm | - | 32 W/m² | - |
| 1777989470 | 24.44° C | 87% | 1013.4 hPa | 0 mm | - | 32 W/m² | - |
| 1777989166 | 24.44° C | 87% | 1013.1 hPa | 0 mm | - | 30 W/m² | - |
| 1777988862 | 24.44° C | 87% | 1013 hPa | 0 mm | - | 45 W/m² | - |
| 1777988560 | 24.44° C | 87% | 1013.2 hPa | 0 mm | - | 69 W/m² | - |
| 1777988256 | 24.44° C | 87% | 1013.2 hPa | 0 mm | - | 90 W/m² | - |
| 1777987953 | 24.44° C | 87% | 1013 hPa | 0 mm | - | 75 W/m² | - |
| 1777987648 | 24.44° C | 87% | 1012.9 hPa | 0 mm | - | 77 W/m² | - |
| 1777987346 | 24.44° C | 87% | 1013.1 hPa | 0 mm | - | 98 W/m² | - |
| 1777987043 | 24.44° C | 87% | 1013.2 hPa | 0 mm | - | 98 W/m² | - |
| 1777986741 | 24.44° C | 87% | 1013 hPa | 0 mm | - | 131 W/m² | - |
| 1777986438 | 24.44° C | 88% | 1013 hPa | 0 mm | - | 138 W/m² | - |
* Rain latest hour (hover to see other rain measurements)
** Current wind speed in m/s (hover to see current wind gust speed)